Weather History for Harlan, KY

Change the Weather History Date:

Monday, June 24, 2013

  Actual Average (KLOZ) Record (KLOZ)
Temperature  
Mean Temperature 74 °F 75 °F  
Max Temperature 86 °F 85 °F 94 °F (1988)
Min Temperature 62 °F 64 °F 47 °F (1961)
Degree Days  
Heating Degree Days 0 0  
Cooling Degree Days 9 10  
Growing Degree Days 24 (Base 50)    
Moisture  
Dew Point 64 °F    
Average Humidity 77    
Maximum Humidity 100    
Minimum Humidity 45    
Precipitation  
Precipitation 0.00 in 0.13 in 1.51 in (1957)
Sea Level Pressure  
Sea Level Pressure 30.19 in    
Wind  
Wind Speed 1 mph (West)    
Max Wind Speed 10 mph    
Max Gust Speed 22 mph    
Visibility 8 miles    
Events      
T = Trace of Precipitation, MM = Missing Value Source: NWS Daily Summary

Daily Weather History Graph

Daily Weather History Graph

Search for Another Location

Airport:

Trip Planner

Search our weather history database for the weather conditions in past years. The results will help you decide how hot, cold, wet, or windy it might be!

Date:

Astronomy

Jun. 24, 2013 Rise Set
Actual Time 6:15 AM EDT 8:56 PM EDT
Civil Twilight 5:44 AM EDT 9:27 PM EDT
Nautical Twilight 5:06 AM EDT 10:05 PM EDT
Astronomical Twilight 4:23 AM EDT 10:48 PM EDT
Moon 10:01 PM EDT (6/24) 7:39 AM EDT (6/24)
Length of Visible Light 15h 42m
Length of Day
14h 41m
Full, 98% of the Moon is Illuminated
Jun 24
Full
Jun 30
Last Quarter
Jul 8
New
Jul 15
First Quarter
Jul 22
Full

Hourly Weather History & Observations

Time (EDT) Temp. Heat Index Dew Point Humidity Pressure Visibility Wind Dir Wind Speed Gust Speed Precip Events Conditions
12:15 AM 68.0 °F - 64.4 °F 88% 30.21 in 10.0 mi Calm Calm - N/A   Scattered Clouds
12:35 AM 66.2 °F - 64.4 °F 94% 30.21 in 10.0 mi Calm Calm - N/A   Clear
12:55 AM 66.2 °F - 62.6 °F 88% 30.21 in 7.0 mi Calm Calm - N/A   Clear
1:15 AM 64.4 °F - 62.6 °F 94% 30.21 in 7.0 mi Calm Calm - N/A   Clear
1:35 AM 64.4 °F - 62.6 °F 94% 30.21 in 7.0 mi Calm Calm - N/A   Clear
1:55 AM 64.4 °F - 62.6 °F 94% 30.21 in 7.0 mi Calm Calm - N/A   Mostly Cloudy
2:15 AM 64.4 °F - 62.6 °F 94% 30.20 in 7.0 mi Calm Calm - N/A   Mostly Cloudy
2:35 AM 64.4 °F - 62.6 °F 94% 30.19 in 7.0 mi Calm Calm - N/A   Scattered Clouds
2:55 AM 64.4 °F - 62.6 °F 94% 30.19 in 7.0 mi Calm Calm - N/A   Clear
3:15 AM 64.4 °F - 62.6 °F 94% 30.19 in 5.0 mi Calm Calm - N/A   Scattered Clouds
3:35 AM 64.4 °F - 62.6 °F 94% 30.19 in 5.0 mi Calm Calm - N/A   Scattered Clouds
3:55 AM 62.6 °F - 62.6 °F 100% 30.19 in 1.0 mi Calm Calm - N/A   Overcast
4:15 AM 62.6 °F - 62.6 °F 100% 30.20 in 5.0 mi Calm Calm - N/A   Scattered Clouds
4:35 AM 62.6 °F - 62.6 °F 100% 30.20 in 3.0 mi Calm Calm - N/A   Mostly Cloudy
4:55 AM 62.6 °F - 62.6 °F 100% 30.19 in 3.0 mi Calm Calm - N/A   Overcast
5:15 AM 62.6 °F - 62.6 °F 100% 30.19 in 4.0 mi Calm Calm - N/A   Mostly Cloudy
5:35 AM 62.6 °F - 62.6 °F 100% 30.20 in 4.0 mi Calm Calm - N/A   Overcast
5:55 AM 62.6 °F - 62.6 °F 100% 30.20 in 0.8 mi Calm Calm - N/A   Overcast
6:15 AM 62.6 °F - 62.6 °F 100% 30.21 in 1.2 mi Calm Calm - N/A   Overcast
6:35 AM 62.6 °F - 62.6 °F 100% 30.21 in 0.2 mi Calm Calm - N/A   Overcast
6:55 AM 62.6 °F - 62.6 °F 100% 30.22 in 0.2 mi Calm Calm - N/A   Overcast
7:15 AM 62.6 °F - 62.6 °F 100% 30.22 in 0.2 mi Calm Calm - N/A   Overcast
7:35 AM 62.6 °F - 62.6 °F 100% 30.23 in 0.2 mi Calm Calm - N/A   Overcast
7:55 AM 62.6 °F - 62.6 °F 100% 30.24 in 0.5 mi Calm Calm - N/A   Overcast
8:15 AM 64.4 °F - 62.6 °F 94% 30.24 in 1.2 mi Calm Calm - N/A   Overcast
8:35 AM 64.4 °F - 62.6 °F 94% 30.24 in 7.0 mi Calm Calm - N/A   Overcast
8:55 AM 68.0 °F - 62.6 °F 83% 30.25 in 10.0 mi Calm Calm - N/A   Scattered Clouds
9:15 AM 69.8 °F - 64.4 °F 83% 30.25 in 10.0 mi Calm Calm - N/A   Scattered Clouds
9:35 AM 71.6 °F - 64.4 °F 78% 30.25 in 10.0 mi Calm Calm - N/A   Mostly Cloudy
9:55 AM 73.4 °F - 64.4 °F 73% 30.25 in 10.0 mi Calm Calm - N/A   Scattered Clouds
10:15 AM 77.0 °F - 64.4 °F 65% 30.25 in 10.0 mi Calm Calm - N/A   Clear
10:35 AM 78.8 °F - 68.0 °F 69% 30.25 in 10.0 mi Calm Calm - N/A   Clear
10:55 AM 78.8 °F - 66.2 °F 65% 30.25 in 10.0 mi Calm Calm - N/A   Clear
11:15 AM 80.6 °F 82.7 °F 66.2 °F 61% 30.25 in 10.0 mi Calm Calm - N/A   Clear
11:35 AM 80.6 °F 82.3 °F 64.4 °F 58% 30.24 in 10.0 mi Calm Calm - N/A   Clear
11:55 AM 82.4 °F 83.9 °F 64.4 °F 54% 30.24 in 10.0 mi West 4.6 mph - N/A   Clear
12:15 PM 82.4 °F 83.9 °F 64.4 °F 54% 30.23 in 10.0 mi Calm Calm - N/A   Clear
12:35 PM 82.4 °F 83.9 °F 64.4 °F 54% 30.23 in 10.0 mi West 4.6 mph - N/A   Mostly Cloudy
12:55 PM 77.0 °F - 66.2 °F 69% 30.22 in 10.0 mi West 6.9 mph 17.3 mph N/A   Mostly Cloudy
1:15 PM 80.6 °F 83.2 °F 68.0 °F 65% 30.22 in 10.0 mi SW 4.6 mph - N/A   Mostly Cloudy
1:35 PM 80.6 °F 82.3 °F 64.4 °F 58% 30.21 in 10.0 mi WSW 3.5 mph - N/A   Clear
1:55 PM 82.4 °F 83.9 °F 64.4 °F 54% 30.19 in 10.0 mi Calm Calm - N/A   Clear
2:15 PM 84.2 °F 85.6 °F 64.4 °F 51% 30.18 in 10.0 mi Calm Calm - N/A   Clear
2:35 PM 86.0 °F 86.6 °F 62.6 °F 45% 30.17 in 10.0 mi West 5.8 mph - N/A   Clear
2:55 PM 86.0 °F 87.3 °F 64.4 °F 48% 30.17 in 10.0 mi West 5.8 mph - N/A   Clear
3:15 PM 82.4 °F 83.9 °F 64.4 °F 54% 30.17 in 10.0 mi WSW 8.1 mph 16.1 mph N/A   Mostly Cloudy
3:35 PM 80.6 °F 82.3 °F 64.4 °F 58% 30.16 in 10.0 mi West 10.4 mph 17.3 mph N/A   Scattered Clouds
3:55 PM 80.6 °F 82.3 °F 64.4 °F 58% 30.16 in 10.0 mi WNW 6.9 mph - N/A   Scattered Clouds
4:15 PM 80.6 °F 82.3 °F 64.4 °F 58% 30.16 in 10.0 mi WNW 4.6 mph - N/A   Mostly Cloudy
4:35 PM 80.6 °F 82.3 °F 64.4 °F 58% 30.16 in 10.0 mi Calm Calm - N/A   Overcast
4:55 PM 80.6 °F 82.7 °F 66.2 °F 61% 30.15 in 10.0 mi Calm Calm - N/A   Mostly Cloudy
5:15 PM 80.6 °F 82.7 °F 66.2 °F 61% 30.14 in 10.0 mi Calm Calm - N/A   Clear
5:35 PM 80.6 °F 82.7 °F 66.2 °F 61% 30.14 in 10.0 mi Calm Calm - N/A   Clear
5:55 PM 80.6 °F 82.3 °F 64.4 °F 58% 30.13 in 10.0 mi Calm Calm - N/A   Scattered Clouds
6:15 PM 82.4 °F 83.9 °F 64.4 °F 54% 30.13 in 10.0 mi Calm Calm - N/A   Scattered Clouds
6:35 PM 82.4 °F 83.4 °F 62.6 °F 51% 30.13 in 10.0 mi West 3.5 mph - N/A   Clear
6:55 PM 80.6 °F 82.3 °F 64.4 °F 58% 30.13 in 10.0 mi Calm Calm - N/A   Clear
7:15 PM 80.6 °F 81.8 °F 62.6 °F 54% 30.14 in 10.0 mi West 3.5 mph - N/A   Clear
7:35 PM 80.6 °F 81.8 °F 62.6 °F 54% 30.13 in 10.0 mi Calm Calm - N/A   Clear
7:55 PM 78.8 °F - 68.0 °F 69% 30.13 in 10.0 mi Calm Calm - N/A   Clear
8:15 PM 77.0 °F - 66.2 °F 69% 30.13 in 10.0 mi Calm Calm - N/A   Clear
8:35 PM 77.0 °F - 68.0 °F 74% 30.12 in 10.0 mi Calm Calm - N/A   Clear
8:55 PM 75.2 °F - 66.2 °F 73% 30.13 in 10.0 mi Calm Calm - N/A   Clear
9:15 PM 73.4 °F - 64.4 °F 73% 30.14 in 10.0 mi Calm Calm - N/A   Clear
9:35 PM 71.6 °F - 66.2 °F 83% 30.16 in 10.0 mi East 6.9 mph - N/A   Scattered Clouds
9:55 PM 71.6 °F - 68.0 °F 88% 30.16 in 10.0 mi East 5.8 mph - N/A   Mostly Cloudy
10:15 PM 71.6 °F - 68.0 °F 88% 30.17 in 10.0 mi Calm Calm - N/A   Mostly Cloudy
10:35 PM 71.6 °F - 68.0 °F 88% 30.18 in 10.0 mi Calm Calm - N/A   Overcast
10:55 PM 73.4 °F - 64.4 °F 73% 30.19 in 10.0 mi NW 10.4 mph 21.9 mph N/A   Overcast
11:15 PM 71.6 °F - 64.4 °F 78% 30.18 in 10.0 mi SSW 3.5 mph - N/A   Overcast
11:35 PM 69.8 °F - 66.2 °F 88% 30.18 in 10.0 mi NNE 3.5 mph - N/A   Overcast
11:55 PM 69.8 °F - 66.2 °F 88% 30.18 in 10.0 mi North - - N/A   Mostly Cloudy